Voltar ao catálogo

PSLV R/B

AtivoSSO
NORAD 43620·ROCKET BODY·🇮🇳 India

Lançado Sep 16, 2018 de Satish Dhawan Space Centre

Loading…

Próximas Passagens (próximas 24 horas)

TLE

AtualizadoSource: Space-Track

Época: Sep 14, 2026, 11:22 UTC

1 43620U 18071C   26257.47424690  .00001336  00000-0  10973-3 0  9996
2 43620  97.4477  70.2440 0017271 181.3743 178.7437 15.00698908435811

Acompanhe PSLV R/B em tempo real com AllMySat

Download on the App Store